�������l�o���
Date,Time,MP-1(��Sv/h),MP-2(��Sv/h),MP-3(��Sv/h),MP-4(��Sv/h),MP-5(��Sv/h),MP-6(��Sv/h),MP-7(��Sv/h),MP-8(��Sv/h),����,����(m/s),���J
2018/02/23,00:00,0.887,1.493,0.931,1.745,1.205,0.487,0.868,0.835,�쐼,2.6,��
2018/02/23,00:10,0.885,1.492,0.930,1.746,1.206,0.487,0.868,0.836,���쐼,2.3,��
2018/02/23,00:20,0.883,1.491,0.929,1.748,1.205,0.485,0.868,0.835,���쐼,1.5,��
2018/02/23,00:30,0.885,1.494,0.930,1.748,1.207,0.487,0.866,0.835,���쐼,1.7,�L
2018/02/23,00:40,0.884,1.490,0.931,1.747,1.207,0.485,0.867,0.834,�쐼,1.7,��
2018/02/23,00:50,0.884,1.489,0.929,1.747,1.207,0.486,0.866,0.834,��쐼,1.5,�L
2018/02/23,01:00,0.886,1.492,0.929,1.745,1.208,0.487,0.867,0.835,�쐼,2.5,��
2018/02/23,01:10,0.884,1.492,0.930,1.747,1.206,0.486,0.866,0.835,���쐼,3.6,��
2018/02/23,01:20,0.887,1.494,0.929,1.745,1.205,0.486,0.867,0.835,���쐼,3.5,��
2018/02/23,01:30,0.887,1.490,0.930,1.745,1.207,0.487,0.868,0.833,�쐼,3.9,��
2018/02/23,01:40,0.885,1.490,0.930,1.747,1.206,0.485,0.867,0.833,�쐼,3.5,��
2018/02/23,01:50,0.887,1.492,0.929,1.747,1.208,0.488,0.866,0.835,���쐼,2.8,�L
2018/02/23,02:00,0.885,1.492,0.931,1.746,1.207,0.484,0.866,0.835,��,2.3,�L
2018/02/23,02:10,0.885,1.494,0.930,1.743,1.205,0.486,0.867,0.834,���k��,2.2,�L
2018/02/23,02:20,0.885,1.494,0.930,1.745,1.206,0.486,0.868,0.835,��,2.0,�L
2018/02/23,02:30,0.887,1.492,0.931,1.746,1.208,0.485,0.866,0.834,���k��,1.5,��
2018/02/23,02:40,0.886,1.491,0.930,1.745,1.207,0.486,0.868,0.837,���k��,2.0,��
2018/02/23,02:50,0.885,1.493,0.930,1.749,1.206,0.487,0.867,0.837,��,2.6,��
2018/02/23,03:00,0.886,1.495,0.929,1.746,1.206,0.486,0.866,0.837,���k��,2.0,��
2018/02/23,03:10,0.884,1.491,0.929,1.747,1.208,0.487,0.867,0.836,�k��,1.7,��
2018/02/23,03:20,0.885,1.493,0.929,1.747,1.206,0.485,0.867,0.836,���k��,1.4,�L
2018/02/23,03:30,0.886,1.494,0.930,1.747,1.207,0.487,0.868,0.835,���k��,1.4,��
2018/02/23,03:40,0.885,1.491,0.929,1.747,1.206,0.486,0.867,0.836,��,0.6,�L
2018/02/23,03:50,0.887,1.492,0.928,1.746,1.206,0.486,0.867,0.837,��,1.1,�L
2018/02/23,04:00,0.884,1.493,0.930,1.747,1.206,0.487,0.867,0.834,���쐼,1.1,�L
2018/02/23,04:10,0.885,1.492,0.929,1.744,1.206,0.487,0.867,0.836,���쐼,2.3,�L
2018/02/23,04:20,0.884,1.491,0.929,1.743,1.203,0.487,0.867,0.835,���쐼,2.3,�L
2018/02/23,04:30,0.885,1.489,0.927,1.744,1.205,0.487,0.867,0.835,��쐼,1.9,�L
2018/02/23,04:40,0.885,1.491,0.928,1.744,1.204,0.487,0.866,0.834,���쐼,0.9,�L
2018/02/23,04:50,0.885,1.488,0.929,1.744,1.205,0.485,0.868,0.834,��쐼,0.6,�L
2018/02/23,05:00,0.884,1.486,0.927,1.745,1.204,0.487,0.867,0.836,��쐼,1.4,�L
2018/02/23,05:10,0.885,1.486,0.929,1.743,1.202,0.486,0.867,0.836,�쐼,2.0,�L
2018/02/23,05:20,0.885,1.490,0.929,1.745,1.205,0.487,0.868,0.835,�쐼,1.7,��
2018/02/23,05:30,0.882,1.488,0.929,1.742,1.204,0.485,0.865,0.837,��,1.1,�L
2018/02/23,05:40,0.883,1.487,0.929,1.743,1.203,0.486,0.866,0.835,��쐼,1.9,�L
2018/02/23,05:50,0.885,1.486,0.928,1.747,1.203,0.487,0.867,0.836,��,1.5,�L
2018/02/23,06:00,0.884,1.486,0.928,1.744,1.200,0.485,0.864,0.835,��쐼,1.7,�L
2018/02/23,06:10,0.883,1.487,0.928,1.744,1.200,0.485,0.865,0.833,���쐼,1.9,�L
2018/02/23,06:20,0.884,1.488,0.927,1.743,1.201,0.485,0.865,0.835,���쐼,2.3,��
2018/02/23,06:30,0.883,1.489,0.927,1.744,1.200,0.485,0.866,0.835,�쐼,1.5,��
2018/02/23,06:40,0.883,1.485,0.927,1.742,1.202,0.484,0.867,0.836,���쐼,0.9,��
2018/02/23,06:50,0.883,1.487,0.925,1.745,1.201,0.485,0.866,0.835,���쐼,1.1,�L
2018/02/23,07:00,0.883,1.486,0.926,1.743,1.202,0.485,0.866,0.836,��쐼,0.6,�L
2018/02/23,07:10,0.883,1.486,0.926,1.743,1.202,0.485,0.868,0.836,��쐼,0.9,��
2018/02/23,07:20,0.885,1.482,0.926,1.743,1.200,0.485,0.864,0.834,��,1.2,��
2018/02/23,07:30,0.879,1.487,0.926,1.743,1.201,0.486,0.866,0.834,��쐼,1.5,��
2018/02/23,07:40,0.883,1.485,0.925,1.743,1.202,0.487,0.866,0.835,��,1.7,�L
2018/02/23,07:50,0.882,1.486,0.925,1.742,1.201,0.485,0.866,0.835,��,2.3,�L
2018/02/23,08:00,0.883,1.481,0.925,1.740,1.203,0.485,0.868,0.835,��,2.2,�L
2018/02/23,08:10,0.884,1.485,0.927,1.747,1.200,0.485,0.867,0.833,��,2.3,��
2018/02/23,08:20,0.885,1.487,0.927,1.746,1.199,0.486,0.866,0.834,��쐼,2.0,��
2018/02/23,08:30,0.885,1.484,0.926,1.744,1.200,0.484,0.868,0.835,��쐼,1.9,��
2018/02/23,08:40,0.885,1.485,0.928,1.743,1.199,0.483,0.868,0.836,��,1.1,��
2018/02/23,08:50,0.885,1.485,0.928,1.745,1.204,0.484,0.867,0.836,��,1.1,��
2018/02/23,09:00,0.886,1.486,0.927,1.744,1.200,0.483,0.866,0.835,��쓌,1.7,��
2018/02/23,09:10,0.886,1.484,0.926,1.743,1.202,0.483,0.869,0.833,��쓌,0.9,��
2018/02/23,09:20,0.885,1.487,0.927,1.747,1.202,0.485,0.868,0.834,���쓌,1.2,��
2018/02/23,09:30,0.884,1.487,0.927,1.746,1.203,0.483,0.865,0.835,���쓌,1.2,��
2018/02/23,09:40,0.885,1.487,0.927,1.744,1.203,0.484,0.864,0.835,���쓌,0.9,��
2018/02/23,09:50,0.886,1.485,0.929,1.746,1.204,0.483,0.865,0.835,���쓌,1.2,�L
2018/02/23,10:00,0.887,1.483,0.924,1.745,1.205,0.486,0.865,0.835,��,0.8,�L
2018/02/23,10:10,0.886,1.482,0.928,1.749,1.205,0.485,0.866,0.836,���k��,1.2,��
2018/02/23,10:20,0.887,1.484,0.926,1.745,1.204,0.485,0.866,0.837,�쓌,0.8,�L
2018/02/23,10:30,0.885,1.483,0.929,1.744,1.203,0.485,0.866,0.835,���쓌,1.7,�L
2018/02/23,10:40,0.886,1.482,0.928,1.747,1.204,0.486,0.867,0.836,���쓌,2.2,�L
2018/02/23,10:50,0.887,1.483,0.926,1.748,1.206,0.485,0.865,0.836,�쓌,1.7,�L
2018/02/23,11:00,0.886,1.485,0.925,1.745,1.204,0.486,0.868,0.835,�쓌,2.0,�L
2018/02/23,11:10,0.889,1.485,0.929,1.744,1.205,0.485,0.866,0.836,�쓌,2.0,�L
2018/02/23,11:20,0.889,1.487,0.931,1.746,1.206,0.486,0.868,0.835,��쓌,2.3,��
2018/02/23,11:30,0.885,1.487,0.929,1.746,1.208,0.486,0.867,0.837,�쓌,2.2,-
2018/02/23,11:40,0.887,1.486,0.930,1.748,1.207,0.486,0.866,0.835,�쓌,2.5,-
2018/02/23,11:50,0.888,1.487,0.928,1.745,1.205,0.487,0.866,0.836,��쓌,3.9,-
2018/02/23,12:00,0.888,1.487,0.929,1.746,1.205,0.487,0.867,0.835,�쓌,4.2,-
2018/02/23,12:10,0.888,1.485,0.928,1.747,1.203,0.487,0.868,0.837,��쓌,3.3,��
2018/02/23,12:20,0.887,1.485,0.927,1.745,1.204,0.485,0.866,0.837,�쓌,3.1,��
2018/02/23,12:30,0.888,1.490,0.930,1.746,1.206,0.486,0.865,0.837,���쓌,3.6,��
2018/02/23,12:40,0.886,1.488,0.929,1.750,1.205,0.486,0.866,0.838,�쓌,3.6,��
2018/02/23,12:50,0.887,1.489,0.930,1.748,1.206,0.486,0.867,0.837,�쓌,4.2,�L
2018/02/23,13:00,0.888,1.493,0.930,1.747,1.202,0.486,0.867,0.838,���쓌,4.7,�L
2018/02/23,13:10,0.889,1.491,0.931,1.747,1.206,0.486,0.866,0.837,�쓌,4.9,��
2018/02/23,13:20,0.889,1.490,0.933,1.747,1.208,0.487,0.866,0.837,��쓌,4.7,�L
2018/02/23,13:30,0.889,1.491,0.930,1.747,1.205,0.487,0.869,0.837,�쓌,4.3,��
2018/02/23,13:40,0.891,1.490,0.931,1.750,1.208,0.488,0.866,0.837,�쓌,4.4,��
2018/02/23,13:50,0.888,1.490,0.930,1.750,1.206,0.488,0.865,0.836,�쓌,5.2,��
2018/02/23,14:00,0.890,1.490,0.929,1.751,1.204,0.487,0.866,0.837,�쓌,3.7,��
2018/02/23,14:10,0.888,1.493,0.930,1.748,1.208,0.488,0.864,0.836,�쓌,4.0,��
2018/02/23,14:20,0.888,1.494,0.930,1.749,1.206,0.489,0.866,0.835,��쓌,3.2,��
2018/02/23,14:30,0.888,1.492,0.930,1.749,1.206,0.489,0.866,0.835,�쓌,4.0,��
2018/02/23,14:40,0.889,1.494,0.928,1.749,1.205,0.488,0.868,0.835,��쓌,4.6,��
2018/02/23,14:50,0.887,1.490,0.933,1.747,1.207,0.487,0.866,0.835,���쓌,3.9,��
2018/02/23,15:00,0.890,1.490,0.933,1.749,1.206,0.489,0.866,0.836,��쓌,3.3,��
2018/02/23,15:10,0.887,1.493,0.932,1.748,1.207,0.489,0.865,0.834,�쓌,3.2,��
2018/02/23,15:20,0.889,1.492,0.932,1.750,1.208,0.491,0.865,0.837,��쓌,3.9,��
2018/02/23,15:30,0.888,1.489,0.932,1.750,1.208,0.489,0.869,0.837,���쓌,3.0,��
2018/02/23,15:40,0.887,1.493,0.932,1.748,1.206,0.489,0.867,0.836,�쓌,2.2,��
2018/02/23,15:50,0.889,1.493,0.932,1.751,1.208,0.488,0.867,0.837,��쓌,2.6,��
2018/02/23,16:00,0.890,1.490,0.931,1.749,1.209,0.492,0.870,0.837,��,2.0,��
2018/02/23,16:10,0.890,1.491,0.933,1.752,1.209,0.489,0.868,0.838,�쓌,3.1,��
2018/02/23,16:20,0.887,1.494,0.932,1.748,1.210,0.488,0.869,0.835,�쓌,2.6,��
2018/02/23,16:30,0.887,1.494,0.931,1.748,1.207,0.487,0.867,0.837,��쓌,3.3,��
2018/02/23,16:40,0.888,1.494,0.932,1.747,1.208,0.488,0.870,0.837,��쓌,3.2,��
2018/02/23,16:50,0.883,1.496,0.932,1.749,1.206,0.488,0.868,0.838,��쓌,3.4,��
2018/02/23,17:00,0.889,1.494,0.932,1.747,1.207,0.490,0.871,0.836,��,2.8,��
2018/02/23,17:10,0.886,1.493,0.933,1.747,1.206,0.487,0.869,0.835,��쐼,3.4,��
2018/02/23,17:20,0.887,1.492,0.931,1.749,1.210,0.489,0.870,0.838,���쐼,2.8,��
2018/02/23,17:30,0.886,1.493,0.930,1.748,1.207,0.488,0.869,0.837,���쐼,4.4,��
2018/02/23,17:40,0.884,1.492,0.934,1.748,1.207,0.489,0.869,0.837,���쐼,4.5,��
2018/02/23,17:50,0.885,1.490,0.932,1.744,1.207,0.490,0.868,0.838,���쐼,3.7,��
2018/02/23,18:00,0.885,1.494,0.932,1.749,1.206,0.488,0.869,0.835,��,5.6,��
2018/02/23,18:10,0.887,1.496,0.934,1.746,1.205,0.489,0.869,0.835,��,5.4,��
2018/02/23,18:20,0.886,1.489,0.933,1.745,1.208,0.487,0.869,0.835,��,3.6,��
2018/02/23,18:30,0.886,1.492,0.931,1.746,1.206,0.489,0.868,0.836,��,3.3,��
2018/02/23,18:40,0.887,1.492,0.933,1.749,1.204,0.487,0.867,0.835,���쐼,1.9,��
2018/02/23,18:50,0.887,1.491,0.931,1.746,1.205,0.488,0.869,0.835,��,1.2,��
2018/02/23,19:00,0.886,1.492,0.930,1.744,1.207,0.487,0.867,0.837,��쐼,1.4,��
2018/02/23,19:10,0.886,1.491,0.932,1.745,1.206,0.487,0.866,0.834,�쐼,1.1,��
2018/02/23,19:20,0.886,1.493,0.929,1.747,1.206,0.488,0.866,0.837,���k��,2.3,��
2018/02/23,19:30,0.887,1.489,0.932,1.746,1.206,0.487,0.866,0.836,�k�k��,2.3,��
2018/02/23,19:40,0.887,1.492,0.930,1.745,1.205,0.488,0.865,0.834,�k�k��,1.7,��
2018/02/23,19:50,0.887,1.490,0.928,1.747,1.205,0.486,0.867,0.836,-,CALM,��
2018/02/23,20:00,0.888,1.489,0.928,1.746,1.206,0.487,0.865,0.836,��쓌,1.2,��
2018/02/23,20:10,0.886,1.492,0.930,1.746,1.205,0.487,0.866,0.836,��쐼,2.3,��
2018/02/23,20:20,0.886,1.490,0.932,1.746,1.206,0.487,0.868,0.835,�쐼,2.3,��
2018/02/23,20:30,0.885,1.493,0.929,1.745,1.204,0.487,0.868,0.835,�쐼,2.2,��
2018/02/23,20:40,0.887,1.490,0.930,1.746,1.205,0.487,0.867,0.837,�쐼,1.9,��
2018/02/23,20:50,0.886,1.492,0.930,1.748,1.206,0.487,0.866,0.835,���쐼,2.0,��
2018/02/23,21:00,0.884,1.491,0.928,1.747,1.207,0.486,0.868,0.835,�쐼,2.5,��
2018/02/23,21:10,0.884,1.491,0.930,1.746,1.205,0.486,0.867,0.836,��,1.9,��
2018/02/23,21:20,0.886,1.493,0.928,1.748,1.208,0.488,0.866,0.837,���k��,6.1,��
2018/02/23,21:30,0.886,1.493,0.932,1.748,1.206,0.487,0.869,0.837,���k��,7.9,��
2018/02/23,21:40,0.883,1.494,0.932,1.751,1.207,0.488,0.866,0.836,��,8.3,��
2018/02/23,21:50,0.885,1.495,0.931,1.745,1.207,0.488,0.868,0.835,��,7.0,��
2018/02/23,22:00,0.887,1.493,0.930,1.748,1.207,0.487,0.868,0.838,��,5.2,��
2018/02/23,22:10,0.886,1.491,0.930,1.746,1.209,0.487,0.867,0.837,��,4.9,��
2018/02/23,22:20,0.885,1.492,0.930,1.746,1.206,0.488,0.866,0.837,��,3.2,��
2018/02/23,22:30,0.884,1.491,0.932,1.749,1.206,0.487,0.868,0.835,�k��,2.8,��
2018/02/23,22:40,0.884,1.491,0.932,1.748,1.205,0.487,0.868,0.837,�k�k��,3.0,��
2018/02/23,22:50,0.886,1.490,0.932,1.747,1.205,0.486,0.867,0.835,�k�k��,4.3,��
2018/02/23,23:00,0.885,1.492,0.930,1.746,1.204,0.485,0.867,0.837,���k��,4.1,��
2018/02/23,23:10,0.885,1.492,0.931,1.749,1.207,0.487,0.867,0.835,���k��,5.7,��
2018/02/23,23:20,0.883,1.492,0.929,1.746,1.205,0.486,0.868,0.836,���k��,4.6,��
2018/02/23,23:30,0.887,1.493,0.932,1.746,1.208,0.485,0.868,0.835,���k��,4.7,��
2018/02/23,23:40,0.885,1.495,0.931,1.746,1.208,0.486,0.868,0.837,�k��,4.6,��
2018/02/23,23:50,0.885,1.492,0.931,1.746,1.206,0.488,0.869,0.836,�k��,4.9,��
